User: anonymous   Login
Location: Unspecified
(0.0000°N, 0.0000°E)
Time: 07:21:28
(UTC+00:00)
Language:

AAUSAT CUBESAT 2 - Orbit

View from above orbital plane
View from above orbital plane
View from above satellite
View from above satellite

Ground track
Ground track

The orbit data is extracted from the following two-line orbital elements,

1 32788U 08021F   18015.14265044  .00000367  00000-0  39327-4 0  9994
2 32788  97.5376  47.9076 0012977 136.7738 223.4503 14.94187635527327
Epoch (UTC): 15 January 2018 03:25:24
Eccentricity: 0.0012977
inclination: 97.5376°
perigee height: 576 km
apogee height: 594 km
right ascension of ascending node: 47.9076°
argument of perigee: 136.7738°
revolutions per day: 14.94187635
mean anomaly at epoch: 223.4503°
orbit number at epoch: 52732

The dashed part of the orbit path shows where the satellite is in the earth's shadow,  

DLR